Location: Highland Meadows Observing Site
(48.4428°N, 114.5461°W)
Time: 18:32:31
(UTC-06:00)

Amateur Radio Satellites - All Passes

Search period start: 28 July 2014 18:02
Search period end: 29 July 2014 18:02
Location: Highland Meadows Observing Site, 48.4428°N, 114.5461°W

Satellite Date Start Highest point End Downlink Frequencies (MHz)
Time Altitude Azimuth
RS-15 28 Jul 18:11:43 18:21:39 37° 344° (NNW) 18:31:39 29.354 - 29.394 USB, Beacon 29.352 USB
Uosat F 28 Jul 18:19:51 18:23:18 18° 270° (W) 18:26:46 435.120 FM
AO-7 28 Jul 18:35:39 18:42:25 27° 268° (W) 18:49:15 29.400 - 29.500 MHz
KITSAT 1 28 Jul 18:40:53 18:44:11 13° 263° (W) 18:47:28 435.175 FM
SO-50 28 Jul 18:52:08 18:53:58 12° 11° (N) 18:55:48 436.795 FM
OPAL 28 Jul 19:04:26 19:08:56 33° 298° (WNW) 19:13:27 ?
UOSAT-12 28 Jul 19:12:34 19:14:38 13° 348° (NNW) 19:16:42 437.025 FM, 437.400 FM
Hamsat 28 Jul 19:20:05 19:24:01 39° 263° (W) 19:27:59 145.90 MHz
JAS-2 28 Jul 19:40:04 19:47:38 53° 261° (W) 19:54:42 435.800 - 435.900 CW/SSB, 435.910 FM
HO-68 28 Jul 19:47:13 19:52:19 22° 49° (NE) 19:57:24 435.675 MHz FM
STRAND 1 28 Jul 19:48:01 19:52:31 30° 95° (E) 19:56:58 ?
SO-67 28 Jul 20:00:39 20:04:07 79° 258° (WSW) 20:07:37 435.3500 MHz FM
RS-15 28 Jul 20:27:38 20:37:37 38° 18° (NNE) 20:47:47 29.354 - 29.394 USB, Beacon 29.352 USB
SO-50 28 Jul 20:32:05 20:36:06 27° 35° (NE) 20:40:10 436.795 FM
UOSAT-12 28 Jul 20:54:42 20:56:50 13° 13° (NNE) 20:58:59 437.025 FM, 437.400 FM
STRAND 1 28 Jul 21:27:02 21:31:50 41° 294° (WNW) 21:36:35 ?
HO-68 28 Jul 21:31:52 21:39:03 82° 70° (ENE) 21:46:15 435.675 MHz FM
JAS-2 28 Jul 21:33:04 21:34:07 10° 280° (W) 21:35:10 435.800 - 435.900 CW/SSB, 435.910 FM
UKube-1 28 Jul 21:33:09 21:37:22 50° 70° (ENE) 21:41:37 145.840 MHz, 145.915 MHz
SO-50 28 Jul 22:12:22 22:17:04 67° 235° (SW) 22:21:51 436.795 FM
MaSat-1 28 Jul 22:17:28 22:21:32 51° 113° (ESE) 22:26:14 437.345 MHz
Oscar 11 28 Jul 22:18:31 22:22:48 71° 74° (ENE) 22:27:07 145.825 FM, Beacon 2401.500 USB
UOSAT-12 28 Jul 22:34:18 22:38:30 30° 36° (NE) 22:42:39 437.025 FM, 437.400 FM
FUNcube-1 28 Jul 22:39:38 22:43:44 45° 70° (ENE) 22:47:47 145.950 - 145.970 MHz USB
RS-15 28 Jul 22:40:56 22:51:59 76° 48° (NE) 23:03:22 29.354 - 29.394 USB, Beacon 29.352 USB
UKube-1 28 Jul 23:10:41 23:13:52 20° 268° (W) 23:17:04 145.840 MHz, 145.915 MHz
HO-68 28 Jul 23:22:10 23:27:33 23° 270° (W) 23:32:59 435.675 MHz FM
MaSat-1 28 Jul 23:55:23 23:59:12 27° 316° (NW) 00:03:27 437.345 MHz
SO-50 28 Jul 23:56:19 23:56:47 10° 253° (WSW) 23:57:16 436.795 FM
Oscar 11 28 Jul 23:57:23 23:59:30 13° 272° (W) 00:01:38 145.825 FM, Beacon 2401.500 USB
ISS 29 Jul 00:03:46 00:05:34 14° 136° (SE) 00:07:23 145.800 FM
UOSAT-12 29 Jul 00:14:18 00:18:57 57° 237° (WSW) 00:23:33 437.025 FM, 437.400 FM
FUNcube-1 29 Jul 00:17:11 00:20:22 20° 268° (W) 00:23:32 145.950 - 145.970 MHz USB
Sapphire 29 Jul 00:29:37 00:31:45 12° 102° (ESE) 00:33:54 437.095 MHz 1200 baud AX-25 AFSK
RS-15 29 Jul 00:53:52 01:03:32 38° 252° (WSW) 01:13:32 29.354 - 29.394 USB, Beacon 29.352 USB
PCSat 29 Jul 01:00:26 01:04:44 25° 109° (ESE) 01:09:03 145.825 MHz
Oscar 10/S400 29 Jul 01:34:46 02:07:20 54° 179° (S) 10:16:23 145.825 - 145.975 CW/USB, Beacon 145.810 USB
ISS 29 Jul 01:38:27 01:41:47 68° 154° (SSE) 01:45:08 145.800 FM
Sapphire 29 Jul 02:08:51 02:14:14 75° 121° (ESE) 02:19:40 437.095 MHz 1200 baud AX-25 AFSK
Oscar 19 29 Jul 02:29:50 02:34:12 27° 93° (E) 02:38:32 437.125 CW, 437.150 USB
PCSat 29 Jul 02:42:22 02:47:44 63° 309° (NW) 02:53:09 145.825 MHz
AO-Echo 29 Jul 02:46:54 02:50:29 19° 89° (E) 02:53:59 ?
Oscar 16 29 Jul 02:57:51 03:02:51 48° 99° (E) 03:07:50 437.025 USB, Beacon 2401.1428
OPAL 29 Jul 03:07:28 03:10:47 18° 54° (NE) 03:14:07 ?
ISS 29 Jul 03:15:21 03:18:38 49° 353° (N) 03:21:55 145.800 FM
JAS-1B 29 Jul 03:17:03 03:25:22 33° 88° (E) 03:32:41 435.800 - 435.900 CW/SSB
ITAMSAT 1 29 Jul 03:18:56 03:23:39 34° 96° (E) 03:28:18 435.822 SSB
TMSAT-1 29 Jul 03:37:14 03:40:40 17° 89° (E) 03:44:05 436.925 FM
AO-27 29 Jul 03:37:59 03:43:02 50° 100° (E) 03:48:03 436.795 MHz FM
Uribyol 2 29 Jul 03:38:12 03:43:15 52° 100° (E) 03:48:16 436.500 FM
Sapphire 29 Jul 03:53:41 03:58:13 27° 323° (NW) 04:02:48 437.095 MHz 1200 baud AX-25 AFSK
Gurwin Techsat 1B 29 Jul 04:00:41 04:05:34 36° 96° (E) 04:10:25 435.225 FM
Oscar 19 29 Jul 04:08:49 04:13:46 47° 292° (WNW) 04:18:42 437.125 CW, 437.150 USB
AO-Echo 29 Jul 04:24:41 04:29:46 64° 289° (WNW) 04:34:39 ?
PCSat 29 Jul 04:28:32 04:32:16 18° 331° (NNW) 04:36:01 145.825 MHz
Oscar 16 29 Jul 04:37:39 04:41:59 28° 298° (WNW) 04:46:19 437.025 USB, Beacon 2401.1428
AO-7 29 Jul 04:39:02 04:44:50 20° 88° (E) 04:50:35 29.400 - 29.500 MHz
OPAL 29 Jul 04:44:11 04:49:07 77° 254° (WSW) 04:54:07 ?
Uosat F 29 Jul 04:44:21 04:47:16 15° 89° (E) 04:50:10 435.120 FM
ISS 29 Jul 04:52:19 04:55:40 59° 13° (NNE) 04:59:00 145.800 FM
MaSat-1 29 Jul 04:55:51 04:58:14 13° 29° (NNE) 05:00:37 437.345 MHz
ITAMSAT 1 29 Jul 04:58:25 05:03:11 38° 295° (WNW) 05:07:55 435.822 SSB
JAS-1B 29 Jul 05:07:05 05:16:41 72° 292° (WNW) 05:24:58 435.800 - 435.900 CW/SSB
TMSAT-1 29 Jul 05:15:53 05:21:11 76° 287° (WNW) 05:26:28 436.925 FM
AO-27 29 Jul 05:17:59 05:22:18 27° 299° (WNW) 05:26:36 436.795 MHz FM
Uribyol 2 29 Jul 05:18:14 05:22:27 26° 299° (WNW) 05:26:39 436.500 FM
KITSAT 1 29 Jul 05:25:13 05:28:16 13° 97° (E) 05:31:19 435.175 FM
STRAND 1 29 Jul 05:32:32 05:34:19 12° 51° (NE) 05:36:05 ?
Gurwin Techsat 1B 29 Jul 05:40:42 05:45:34 38° 295° (WNW) 05:50:24 435.225 FM
Sapphire 29 Jul 05:41:45 05:43:38 12° 348° (NNW) 05:45:30 437.095 MHz 1200 baud AX-25 AFSK
AO-Echo 29 Jul 06:05:52 06:07:31 12° 309° (NW) 06:09:08 ?
PCSat 29 Jul 06:17:00 06:18:02 11° 358° (N) 06:19:04 145.825 MHz
Uosat F 29 Jul 06:21:38 06:26:40 79° 287° (WNW) 06:31:40 435.120 FM
OPAL 29 Jul 06:27:48 06:28:52 11° 272° (W) 06:29:55 ?
ISS 29 Jul 06:29:08 06:32:20 41° 212° (SSW) 06:35:32 145.800 FM
AO-7 29 Jul 06:30:28 06:38:52 84° 109° (ESE) 06:47:11 29.400 - 29.500 MHz
MaSat-1 29 Jul 06:31:56 06:36:59 42° 51° (NE) 06:41:54 437.345 MHz
JAS-2 29 Jul 06:47:34 06:51:46 19° 86° (E) 06:55:41 435.800 - 435.900 CW/SSB, 435.910 FM
TMSAT-1 29 Jul 06:57:35 07:00:15 14° 307° (NW) 07:02:55 436.925 FM
JAS-1B 29 Jul 06:58:29 07:05:29 24° 315° (NW) 07:12:00 435.800 - 435.900 CW/SSB
Hamsat 29 Jul 07:01:59 07:05:42 28° 94° (E) 07:09:25 145.90 MHz
STRAND 1 29 Jul 07:07:27 07:12:32 64° 71° (ENE) 07:17:38 ?
KITSAT 1 29 Jul 07:14:04 07:21:57 59° 117° (ESE) 07:29:52 435.175 FM
Sapphire 29 Jul 07:27:26 07:29:39 12° 15° (NNE) 07:31:51 437.095 MHz 1200 baud AX-25 AFSK
Saudisat 1A 29 Jul 07:45:06 07:47:59 17° 112° (ESE) 07:50:53 436.775 MHz
PCSat 29 Jul 08:00:37 08:03:55 16° 24° (NNE) 08:07:12 145.825 MHz
Uosat F 29 Jul 08:02:11 08:04:40 14° 306° (NW) 08:07:08 435.120 FM
MaSat-1 29 Jul 08:09:27 08:14:19 37° 251° (WSW) 08:18:59 437.345 MHz
AO-7 29 Jul 08:24:01 08:30:51 30° 311° (NW) 08:37:40 29.400 - 29.500 MHz
JAS-2 29 Jul 08:31:33 08:37:42 71° 289° (WNW) 08:43:08 435.800 - 435.900 CW/SSB, 435.910 FM
Hamsat 29 Jul 08:37:50 08:41:42 34° 292° (WNW) 08:45:36 145.90 MHz
STRAND 1 29 Jul 08:48:28 08:52:11 20° 269° (W) 08:55:55 ?
SO-67 29 Jul 08:53:54 08:57:24 75° 102° (ESE) 09:00:52 435.3500 MHz FM
HO-68 29 Jul 08:58:50 09:00:54 11° 82° (E) 09:02:58 435.675 MHz FM
KITSAT 1 29 Jul 09:09:56 09:17:40 46° 321° (NW) 09:25:26 435.175 FM
Sapphire 29 Jul 09:10:09 09:14:55 30° 40° (NE) 09:19:40 437.095 MHz 1200 baud AX-25 AFSK
Saudisat 1A 29 Jul 09:22:40 09:27:05 71° 311° (NW) 09:31:32 436.775 MHz
PCSat 29 Jul 09:43:24 09:48:41 48° 48° (NE) 09:53:56 145.825 MHz
JAS-2 29 Jul 10:18:20 10:21:34 15° 312° (NW) 10:24:38 435.800 - 435.900 CW/SSB, 435.910 FM
SO-67 29 Jul 10:29:35 10:29:56 10° 300° (WNW) 10:30:17 435.3500 MHz FM
HO-68 29 Jul 10:43:02 10:50:08 61° 103° (ESE) 10:57:10 435.675 MHz FM
Sapphire 29 Jul 10:53:22 10:58:45 62° 241° (WSW) 11:04:05 437.095 MHz 1200 baud AX-25 AFSK
UKube-1 29 Jul 10:53:44 10:58:02 54° 101° (E) 11:02:17 145.840 MHz, 145.915 MHz
Saudisat 1A 29 Jul 11:04:21 11:07:27 18° 332° (NNW) 11:10:32 436.775 MHz
KITSAT 1 29 Jul 11:09:03 11:15:20 24° 348° (NNW) 11:21:38 435.175 FM
PCSat 29 Jul 11:27:08 11:31:57 33° 248° (WSW) 11:36:45 145.825 MHz
Oscar 11 29 Jul 11:38:27 11:42:49 87° 104° (ESE) 11:47:10 145.825 FM, Beacon 2401.500 USB
FUNcube-1 29 Jul 12:01:04 12:05:12 58° 101° (E) 12:09:20 145.950 - 145.970 MHz USB
Oscar 19 29 Jul 12:16:35 12:17:00 10° 50° (NE) 12:17:25 437.125 CW, 437.150 USB
JAS-1B 29 Jul 12:19:45 12:24:29 15° 34° (NE) 12:29:17 435.800 - 435.900 CW/SSB
UKube-1 29 Jul 12:30:46 12:33:53 20° 299° (WNW) 12:37:00 145.840 MHz, 145.915 MHz
HO-68 29 Jul 12:31:15 12:37:30 34° 303° (WNW) 12:43:44 435.675 MHz FM
SO-50 29 Jul 12:32:43 12:35:24 16° 111° (ESE) 12:38:08 436.795 FM
Oscar 16 29 Jul 12:41:47 12:45:02 17° 56° (NE) 12:48:17 437.025 USB, Beacon 2401.1428
ITAMSAT 1 29 Jul 13:04:34 13:07:06 14° 53° (NE) 13:09:37 435.822 SSB
KITSAT 1 29 Jul 13:07:14 13:13:49 26° 18° (NNE) 13:20:21 435.175 FM
RS-15 29 Jul 13:11:10 13:20:05 29° 104° (ESE) 13:28:50 29.354 - 29.394 USB, Beacon 29.352 USB
Oscar 11 29 Jul 13:16:23 13:18:23 13° 302° (WNW) 13:20:23 145.825 FM, Beacon 2401.500 USB
Uribyol 2 29 Jul 13:22:32 13:26:09 20° 57° (ENE) 13:29:47 436.500 FM
AO-27 29 Jul 13:22:36 13:26:11 19° 57° (ENE) 13:29:47 436.795 MHz FM
FUNcube-1 29 Jul 13:38:31 13:41:13 17° 299° (WNW) 13:43:55 145.950 - 145.970 MHz USB
Gurwin Techsat 1B 29 Jul 13:48:48 13:51:38 15° 54° (NE) 13:54:27 435.225 FM
Oscar 19 29 Jul 13:50:17 13:55:16 55° 70° (ENE) 14:00:17 437.125 CW, 437.150 USB
AO-7 29 Jul 13:55:00 13:58:41 14° 32° (NNE) 14:02:21 29.400 - 29.500 MHz
AO-Echo 29 Jul 14:02:41 14:07:33 38° 66° (ENE) 14:12:26 ?
JAS-1B 29 Jul 14:03:52 14:12:20 42° 57° (ENE) 14:21:19 435.800 - 435.900 CW/SSB
SO-50 29 Jul 14:10:53 14:15:22 78° 310° (NW) 14:19:59 436.795 FM
Oscar 16 29 Jul 14:18:37 14:23:45 84° 256° (WSW) 14:28:55 437.025 USB, Beacon 2401.1428
Saudisat 1A 29 Jul 14:27:53 14:30:20 14° 21° (NNE) 14:32:46 436.775 MHz
UOSAT-12 29 Jul 14:30:16 14:33:23 18° 112° (ESE) 14:36:34 437.025 FM, 437.400 FM
ITAMSAT 1 29 Jul 14:40:32 14:45:44 74° 72° (ENE) 14:50:57 435.822 SSB
Uribyol 2 29 Jul 14:59:54 15:05:06 74° 256° (WSW) 15:10:18 436.500 FM
AO-27 29 Jul 14:59:55 15:05:08 77° 256° (WSW) 15:10:24 436.795 MHz FM
TMSAT-1 29 Jul 15:01:14 15:06:06 38° 66° (ENE) 15:10:59 436.925 FM
KITSAT 1 29 Jul 15:03:06 15:11:05 58° 45° (NE) 15:19:01 435.175 FM
RS-15 29 Jul 15:20:00 15:31:07 87° 308° (NW) 15:42:07 29.354 - 29.394 USB, Beacon 29.352 USB
Gurwin Techsat 1B 29 Jul 15:25:28 15:30:46 78° 73° (ENE) 15:36:07 435.225 FM
Oscar 19 29 Jul 15:30:59 15:34:58 23° 268° (W) 15:38:58 437.125 CW, 437.150 USB
AO-Echo 29 Jul 15:41:27 15:46:19 36° 264° (W) 15:51:13 ?
AO-7 29 Jul 15:41:39 15:49:18 42° 56° (NE) 15:56:57 29.400 - 29.500 MHz
JAS-1B 29 Jul 15:53:14 16:02:16 67° 259° (W) 16:12:12 435.800 - 435.900 CW/SSB
SO-50 29 Jul 15:53:20 15:56:41 20° 332° (NNW) 16:00:06 436.795 FM
Uosat F 29 Jul 16:00:40 16:05:07 33° 64° (ENE) 16:09:36 435.120 FM
Oscar 16 29 Jul 16:01:54 16:03:55 12° 274° (W) 16:05:57 437.025 USB, Beacon 2401.1428
Saudisat 1A 29 Jul 16:06:43 16:11:00 45° 44° (NE) 16:15:14 436.775 MHz
UOSAT-12 29 Jul 16:08:23 16:13:01 73° 311° (NW) 16:17:45 437.025 FM, 437.400 FM
ITAMSAT 1 29 Jul 16:22:25 16:25:48 17° 271° (W) 16:29:12 435.822 SSB
TMSAT-1 29 Jul 16:41:15 16:46:03 35° 264° (W) 16:50:54 436.925 FM
AO-27 29 Jul 16:43:55 16:45:32 11° 275° (W) 16:47:10 436.795 MHz FM
Uribyol 2 29 Jul 16:44:16 16:45:29 11° 275° (W) 16:46:42 436.500 FM
OPAL 29 Jul 16:50:54 16:54:37 20° 94° (E) 16:58:20 ?
KITSAT 1 29 Jul 16:58:50 17:06:20 44° 247° (WSW) 17:13:48 435.175 FM
JAS-2 29 Jul 17:03:17 17:08:30 21° 53° (NE) 17:13:26 435.800 - 435.900 CW/SSB, 435.910 FM
Gurwin Techsat 1B 29 Jul 17:08:03 17:11:22 17° 272° (W) 17:14:43 435.225 FM
AO-7 29 Jul 17:33:40 17:41:52 57° 257° (WSW) 17:50:07 29.400 - 29.500 MHz
RS-15 29 Jul 17:34:50 17:45:01 41° 337° (NNW) 17:55:14 29.354 - 29.394 USB, Beacon 29.352 USB
SO-50 29 Jul 17:37:47 17:39:04 11° 357° (N) 17:40:21 436.795 FM
Uosat F 29 Jul 17:39:08 17:43:50 39° 262° (W) 17:48:34 435.120 FM
Saudisat 1A 29 Jul 17:46:39 17:50:25 28° 243° (WSW) 17:54:10 436.775 MHz
JAS-1B 29 Jul 17:49:03 17:54:44 17° 282° (WNW) 18:00:43 435.800 - 435.900 CW/SSB
UOSAT-12 29 Jul 17:50:32 17:53:59 20° 333° (NNW) 17:57:27 437.025 FM, 437.400 FM
